Spokane Felts, WA

6:25 PM PST on February 18, 2018 (GMT -0800)
Felts

Weather History for KSFF - September, 2012

Change the Weather History Date:

Sunday, September 30, 2012

  Actual Average Record
Temperature  
Mean Temperature 63 °F 55 °F  
Max Temperature 77 °F 68 °F 84 °F (1997)
Min Temperature 48 °F 41 °F 35 °F (1999)
Degree Days  
Heating Degree Days 2 10  
Month to date heating degree days 67 166  
Since 1 July heating degree days 87 211  
Cooling Degree Days 0 0  
Month to date cooling degree days 14 30  
Year to date cooling degree days 509 406  
Growing Degree Days 12 (Base 50)    
Moisture  
Dew Point 36 °F    
Average Humidity 48    
Maximum Humidity 80    
Minimum Humidity 15    
Precipitation  
Precipitation 0.00 in 0.03 in 0.63 in (2005)
Month to date precipitation T 0.84  
Year to date precipitation 13.87 11.58  
Sea Level Pressure  
Sea Level Pressure 30.23 in    
Wind  
Wind Speed 2 mph (WNW)    
Max Wind Speed 10 mph    
Max Gust Speed 16 mph    
Visibility 10 miles    
Events      
T = Trace of Precipitation, MM = Missing Value Source: NWS Daily Summary

Daily Weather History Graph

Daily Weather History Graph

Search for Another Location

Airport or City:

Trip Planner

Search our weather history database for the weather conditions in past years. The results will help you decide how hot, cold, wet, or windy it might be!

Date:

Astronomy

Sep. 30, 2012 Rise Set
Actual Time 6:47 AM PDT 6:29 PM PDT
Civil Twilight 6:17 AM PDT 7:00 PM PDT
Nautical Twilight 5:41 AM PDT 7:35 PM PDT
Astronomical Twilight 5:04 AM PDT 8:12 PM PDT
Moon 6:27 PM PDT (9/30) 7:29 AM PDT (9/30)
Length of Visible Light 12h 43m
Length of Day
11h 41m
Full, 100% of the Moon is Illuminated
Sep 30
Full
Oct 8
Last Quarter
Oct 15
New
Oct 21
First Quarter
Oct 29
Full

Hourly Weather History & Observations

Time (PDT) Temp. Dew Point Humidity Pressure Visibility Wind Dir Wind Speed Gust Speed Precip Events Conditions
12:53 AM 54.0 °F 46.0 °F 75% 30.09 in 10.0 mi Calm Calm - N/A   Clear
1:53 AM 54.0 °F 45.0 °F 72% 30.11 in 10.0 mi WSW 3.5 mph - N/A   Clear
2:53 AM 52.0 °F 44.1 °F 74% 30.13 in 10.0 mi Calm Calm - N/A   Clear
3:53 AM 50.0 °F 43.0 °F 77% 30.14 in 10.0 mi Calm Calm - N/A   Clear
4:53 AM 52.0 °F 44.1 °F 74% 30.15 in 10.0 mi Calm Calm - N/A   Clear
5:53 AM 55.0 °F 42.1 °F 62% 30.17 in 10.0 mi West 4.6 mph - N/A   Clear
6:53 AM 48.2 °F 42.8 °F 82% 30.22 in 10.0 mi Calm Calm - N/A   Clear
7:53 AM 52.0 °F 42.1 °F 69% 30.24 in 10.0 mi Calm Calm - N/A   Clear
8:53 AM 57.0 °F 41.0 °F 55% 30.27 in 10.0 mi Calm Calm - N/A   Clear
9:53 AM 60.1 °F 39.9 °F 47% 30.27 in 10.0 mi Calm Calm - N/A   Clear
10:53 AM 63.0 °F 39.9 °F 43% 30.27 in 10.0 mi Calm Calm - N/A   Clear
11:53 AM 66.9 °F 37.0 °F 33% 30.28 in 10.0 mi Calm Calm - N/A   Clear
12:53 PM 70.0 °F 30.9 °F 24% 30.27 in 10.0 mi Calm Calm - N/A   Clear
1:53 PM 73.0 °F 30.0 °F 20% 30.25 in 10.0 mi Calm Calm - N/A   Clear
2:53 PM 75.0 °F 32.0 °F 21% 30.25 in 10.0 mi Calm Calm - N/A   Clear
3:53 PM 75.9 °F 28.0 °F 17% 30.25 in 10.0 mi WSW 9.2 mph - N/A   Clear
4:53 PM 75.0 °F 25.0 °F 16% 30.23 in 10.0 mi Variable 5.8 mph - N/A   Clear
5:53 PM 73.9 °F 24.1 °F 16% 30.24 in 10.0 mi WSW 4.6 mph - N/A   Clear
6:53 PM 59.0 °F 28.9 °F 32% 30.26 in 10.0 mi Calm Calm - N/A   Clear
7:53 PM 57.9 °F 32.0 °F 37% 30.28 in 10.0 mi ENE 4.6 mph - N/A   Clear
8:53 PM 57.9 °F 27.0 °F 31% 30.28 in 10.0 mi Calm Calm - N/A   Clear
9:53 PM 53.6 °F 30.2 °F 41% 30.29 in 10.0 mi Calm Calm - N/A   Clear
10:53 PM 52.0 °F 35.1 °F 53% 30.29 in 10.0 mi NE 3.5 mph - N/A   Clear
11:53 PM 52.0 °F 30.9 °F 45% 30.29 in 10.0 mi ENE 4.6 mph - N/A   Clear